{"data":{"norad_id":67960,"epoch":"2026-09-19T02:35:19.233600Z","epoch_age_seconds":183529,"freshness":"STALE","line1":"1 67960U 26037AE  26262.10786150  .00012643  00000+0  46813-3 0  9992","line2":"2 67960  43.0009 178.2096 0001449 270.3754  89.6931 15.27581988 32921","mean_motion":15.27581988,"eccentricity":0.0001449,"inclination_deg":43.0009,"raan_deg":178.2096,"arg_perigee_deg":270.3754,"mean_anomaly_deg":89.6931,"bstar":0.00046813,"rev_number":3292,"period_min":94.266626034609,"perigee_km":482.04895825617,"apogee_km":484.03732826169,"semimajor_km":6861.1801432589,"source":"CELESTRAK","updated_at":"2026-09-20T09:00:43.712968Z"}}